Location: Perugia
(43.1330°N, 12.3670°E)
Time: 00:35:21
(UTC+02:00)

ISS - Visible Passes

Search period start: 27 April 2018 00:00
Search period end: 07 May 2018 00:00
Orbit: 402 x 407 km, 51.6° (Epoch: 27 April)

Date Brightness Start Highest point End Pass type
(mag) Time Alt. Az. Time Alt. Az. Time Alt. Az.
01 May -1.5 05:19:21 10° S 05:21:40 18° SE 05:23:59 10° E visible
03 May -2.9 05:10:18 11° SSW 05:13:17 41° SE 05:16:23 10° ENE visible
04 May -2.0 04:20:04 19° SSE 04:21:06 22° SE 04:23:43 10° E visible
05 May -1.0 03:29:46 11° ESE 03:29:46 11° ESE 03:30:20 10° ESE visible
05 May -3.9 05:02:24 15° WSW 05:05:00 85° NNW 05:08:17 10° ENE visible
06 May -3.4 04:12:01 42° S 04:12:40 51° SE 04:15:52 10° ENE visible
